San Diego, CA

10:42 AM PDT on October 17, 2017 (GMT -0700)
San Diego International-Lindbergh

Weather History for KSAN - January, 2013

Change the Weather History Date:

Saturday, January 26, 2013

  Actual Average Record
Temperature  
Mean Temperature 60 °F 57 °F  
Max Temperature 62 °F 65 °F 82 °F (2003)
Min Temperature 57 °F 50 °F 36 °F (1949)
Degree Days  
Heating Degree Days 5 8  
Month to date heating degree days 232 211  
Since 1 July heating degree days 552 618  
Cooling Degree Days 0 0  
Month to date cooling degree days 0 0  
Year to date cooling degree days 0 0  
Growing Degree Days 9 (Base 50)    
Moisture  
Dew Point 57 °F    
Average Humidity 91    
Maximum Humidity 97    
Minimum Humidity 84    
Precipitation  
Precipitation 0.15 in 0.06 in 2.04 in (1914)
Month to date precipitation 1.21 1.66  
Year to date precipitation 1.21 1.66  
Since 1 July precipitation 4.38  
Snow  
Snow 0.00 in - - ()
Month to date snowfall 0.0  
Year to date snowfall 0.0  
Snow Depth 0.00 in    
Sea Level Pressure  
Sea Level Pressure 29.96 in    
Wind  
Wind Speed 4 mph (SSW)    
Max Wind Speed 12 mph    
Max Gust Speed 15 mph    
Visibility 4 miles    
Events Fog , Rain    
T = Trace of Precipitation, MM = Missing Value Source: NWS Daily Summary

Daily Weather History Graph

Daily Weather History Graph

Search for Another Location

Airport or City:

Trip Planner

Search our weather history database for the weather conditions in past years. The results will help you decide how hot, cold, wet, or windy it might be!

Date:

Astronomy

Jan. 26, 2013 Rise Set
Actual Time 6:46 AM PST 5:16 PM PST
Civil Twilight 6:20 AM PST 5:42 PM PST
Nautical Twilight 5:51 AM PST 6:12 PM PST
Astronomical Twilight 5:21 AM PST 6:41 PM PST
Moon 5:12 PM PST (1/26) 6:09 AM PST (1/26)
Length of Visible Light 11h 21m
Length of Day
10h 29m
Full, 100% of the Moon is Illuminated
Jan 26
Full
Jan 26
Full
Feb 3
Last Quarter
Feb 9
New
Feb 17
First Quarter

Hourly Weather History & Observations

Time (PST) Temp. Dew Point Humidity Pressure Visibility Wind Dir Wind Speed Gust Speed Precip Events Conditions
12:36 AM 60.8 °F 59.0 °F 94% 29.97 in 4.0 mi Calm Calm - 0.04 in Rain Light Rain
12:43 AM 60.8 °F 57.2 °F 88% 29.97 in 4.0 mi Calm Calm - 0.04 in Rain Light Rain
12:51 AM 60.1 °F 57.9 °F 93% 29.96 in 4.0 mi East 3.5 mph - 0.05 in Rain Light Rain
1:05 AM 60.8 °F 57.2 °F 88% 29.95 in 5.0 mi East 4.6 mph - 0.00 in Rain Light Rain
1:24 AM 60.8 °F 59.0 °F 94% 29.95 in 7.0 mi Calm Calm - 0.01 in Rain Light Rain
1:51 AM 61.0 °F 57.9 °F 90% 29.95 in 5.0 mi Calm Calm - 0.02 in Rain Light Rain
2:15 AM 60.8 °F 59.0 °F 94% 29.94 in 4.0 mi Calm Calm - 0.00 in Rain Light Rain
2:51 AM 60.1 °F 57.9 °F 93% 29.94 in 4.0 mi Calm Calm - 0.01 in Rain Light Rain
3:00 AM 60.8 °F 57.2 °F 88% 29.93 in 4.0 mi Calm Calm - N/A   Overcast
3:51 AM 60.1 °F 57.9 °F 93% 29.92 in 4.0 mi Calm Calm - N/A   Overcast
4:06 AM 60.8 °F 57.2 °F 88% 29.92 in 3.0 mi Calm Calm - N/A   Overcast
4:31 AM 60.8 °F 57.2 °F 88% 29.91 in 4.0 mi Calm Calm - N/A   Overcast
4:40 AM 60.8 °F 57.2 °F 88% 29.91 in 6.0 mi Calm Calm - N/A   Overcast
4:51 AM 60.1 °F 57.9 °F 93% 29.91 in 5.0 mi Calm Calm - N/A   Overcast
5:49 AM 59.0 °F 57.2 °F 94% 29.92 in 2.5 mi SW 4.6 mph - N/A   Mostly Cloudy
5:51 AM 59.0 °F 57.9 °F 96% 29.92 in 2.5 mi SW 4.6 mph - N/A   Mostly Cloudy
6:04 AM 59.0 °F 57.2 °F 94% 29.93 in 4.0 mi Calm Calm - N/A   Mostly Cloudy
6:10 AM 59.0 °F 57.2 °F 94% 29.93 in 5.0 mi Calm Calm - N/A   Overcast
6:33 AM 59.0 °F 57.2 °F 94% 29.93 in 4.0 mi SW 5.8 mph - N/A   Overcast
6:45 AM 59.0 °F 57.2 °F 94% 29.93 in 4.0 mi SSW 4.6 mph - N/A   Overcast
6:51 AM 59.0 °F 57.9 °F 96% 29.94 in 4.0 mi SSW 3.5 mph - N/A   Overcast
7:07 AM 59.0 °F 57.2 °F 94% 29.94 in 4.0 mi SW 4.6 mph - N/A   Overcast
7:13 AM 59.0 °F 57.2 °F 94% 29.94 in 2.0 mi Calm Calm - N/A   Overcast
7:19 AM 59.0 °F 57.2 °F 94% 29.94 in 1.0 mi SSW 3.5 mph - N/A   Overcast
7:21 AM 59.0 °F 57.2 °F 94% 29.94 in 0.8 mi SSW 3.5 mph - N/A   Overcast
7:25 AM 59.0 °F 57.2 °F 94% 29.94 in 0.2 mi SW 3.5 mph - N/A Fog Fog
7:51 AM 59.0 °F 57.9 °F 96% 29.94 in 0.8 mi SSW 4.6 mph - 0.00 in Rain Light Rain
8:16 AM 59.0 °F 57.2 °F 94% 29.95 in 1.0 mi SSW 3.5 mph - 0.03 in Rain Light Rain
8:28 AM 59.0 °F 57.2 °F 94% 29.95 in 1.5 mi SSW 3.5 mph - 0.04 in Rain Light Rain
8:32 AM 59.0 °F 57.2 °F 94% 29.95 in 2.0 mi Calm Calm - 0.04 in Rain Light Rain
8:40 AM 57.2 °F 57.2 °F 100% 29.95 in 2.5 mi Calm Calm - 0.04 in Rain Light Rain
8:45 AM 59.0 °F 57.2 °F 94% 29.95 in 3.0 mi Calm Calm - 0.04 in   Overcast
8:51 AM 59.0 °F 57.9 °F 96% 29.96 in 4.0 mi Calm Calm - 0.04 in   Overcast
9:25 AM 59.0 °F 57.2 °F 94% 29.97 in 7.0 mi SSW 4.6 mph - N/A   Overcast
9:51 AM 59.0 °F 57.9 °F 96% 29.97 in 2.5 mi South 3.5 mph - 0.00 in   Overcast
10:18 AM 60.8 °F 57.2 °F 88% 29.97 in 4.0 mi South 4.6 mph - N/A   Overcast
10:51 AM 60.1 °F 57.9 °F 93% 29.97 in 4.0 mi South 5.8 mph - N/A   Overcast
11:51 AM 61.0 °F 57.9 °F 90% 29.95 in 7.0 mi SSW 3.5 mph - N/A   Overcast
12:51 PM 60.1 °F 57.9 °F 93% 29.94 in 6.0 mi WSW 8.1 mph - N/A   Overcast
1:51 PM 60.1 °F 57.0 °F 90% 29.94 in 4.0 mi SW 5.8 mph - N/A   Mostly Cloudy
2:51 PM 60.1 °F 55.9 °F 86% 29.96 in 5.0 mi West 10.4 mph - N/A   Overcast
3:16 PM 59.0 °F 55.4 °F 88% 29.96 in 7.0 mi West 8.1 mph - N/A   Overcast
3:51 PM 59.0 °F 55.0 °F 87% 29.96 in 10.0 mi Variable 4.6 mph - N/A   Overcast
4:51 PM 59.0 °F 55.9 °F 90% 29.97 in 2.0 mi WSW 8.1 mph - N/A   Overcast
5:03 PM 59.0 °F 55.4 °F 88% 29.97 in 1.8 mi WSW 5.8 mph - N/A   Overcast
5:18 PM 59.0 °F 55.4 °F 88% 29.97 in 2.5 mi WSW 4.6 mph - N/A   Overcast
5:28 PM 59.0 °F 55.4 °F 88% 29.97 in 3.0 mi SW 4.6 mph - N/A   Overcast
5:44 PM 57.2 °F 55.4 °F 94% 29.98 in 3.0 mi SSW 4.6 mph - N/A   Overcast
5:51 PM 59.0 °F 55.9 °F 90% 29.98 in 3.0 mi South 3.5 mph - N/A   Overcast
6:51 PM 57.9 °F 55.9 °F 93% 29.99 in 4.0 mi South 4.6 mph - N/A   Overcast
7:51 PM 57.9 °F 55.9 °F 93% 30.00 in 4.0 mi South 8.1 mph - N/A   Overcast
8:51 PM 57.9 °F 55.9 °F 93% 30.01 in 7.0 mi South 5.8 mph - N/A   Overcast
9:23 PM 57.2 °F 55.4 °F 94% 30.02 in 2.0 mi SSW 6.9 mph - 0.00 in Rain Light Rain
9:37 PM 57.2 °F 55.4 °F 94% 30.03 in 1.8 mi South 8.1 mph - 0.00 in Rain Light Rain
9:51 PM 57.9 °F 55.9 °F 93% 30.03 in 1.8 mi South 6.9 mph - 0.01 in Rain Light Rain
10:51 PM 57.0 °F 55.0 °F 93% 30.04 in 1.8 mi WSW 6.9 mph - 0.01 in Rain Light Rain
11:37 PM 57.2 °F 55.4 °F 94% 30.04 in 4.0 mi SW 5.8 mph - 0.02 in   Mostly Cloudy
11:51 PM 57.0 °F 55.0 °F 93% 30.04 in 4.0 mi SSW 3.5 mph - 0.02 in   Mostly Cloudy